Regional Weather Roundup
Issued by NWS

Home | Current Version | Previous Version | Text Only | Print | Product List | Glossary Off
Versions: 1 2 3 4 5 6 7 8 9 10 11 12 13 14 15 16 17 18 19 20 21 22 23 24 25 26 27 28 29 30 31 32 33 34 35 36 37 38 39 40 41 42 43 44 45 46 47 48 49 50

000
ASUS45 KSLC 171510
RWRUT

UTAH REGIONAL WEATHER ROUNDUP
NATIONAL WEATHER SERVICE SALT LAKE CITY UT
900 AM MDT TUE OCT 17 2017

UTZ001>011-023>025-171600-

NORTHERN UTAH

CITY           SKY/WX    TMP DP  RH WIND       PRES   REMARKS
BRIGHAM CITY   SUNNY     34  23  64 CALM      30.30S
HILL AFB       SUNNY     42  13  30 E21G28    30.29S
LOGAN          SUNNY     31  26  82 CALM      30.31S
OGDEN          SUNNY     45  18  34 S6        30.28F
SALT LAKE CITY MOSUNNY   46  29  51 SE5       30.28F
TOOELE VALLEY  MOSUNNY   39  27  60 SE3       30.29S
WENDOVER         N/A     36  19  50 CALM      30.31R
WEST JORDAN    MOSUNNY   48  25  40 CALM      30.29S

$$

UTZ011>015-024>027-171600-

CENTRAL/NORTHEAST UTAH

CITY           SKY/WX    TMP DP  RH WIND       PRES   REMARKS
PROVO AIRPORT  MOSUNNY   40  26  57 CALM      30.33S
MOAB/CANYONLAN MOSUNNY   46  13  26 CALM      30.35R
DELTA          PTSUNNY   36  19  51 CALM      30.31S
PRICE          MOSUNNY   44   8  23 CALM      30.38R
ROOSEVELT      CLOUDY    36  21  55 CALM      30.41R
VERNAL         CLOUDY    41  19  41 CALM      30.39R

$$

UTZ013>016-019>022-027-171600-

SOUTHERN UTAH

CITY           SKY/WX    TMP DP  RH WIND       PRES   REMARKS
BRYCE CANYON   MOSUNNY   35   2  24 W8        30.45R WCI  29
CEDAR CITY     MOSUNNY   41   9  26 CALM      30.32S
MILFORD        PTSUNNY   32  10  40 S6        30.32S WCI  26
ST GEORGE      SUNNY     51  12  21 CALM      30.26R
HANKSVILLE     PTSUNNY   36  14  41 CALM      30.40R
BLANDING         N/A     50   5  16 CALM      30.46R

$$

REGIONAL REPORTS     COLORADO/ARIZONA

CITY           SKY/WX    TMP DP  RH WIND       PRES   REMARKS
CRAIG, CO      CLOUDY    29  19  66 CALM      30.42R
GRAND JUNCTION CLOUDY    42  15  33 SE8       30.39R
RIFLE, CO      CLOUDY    35  19  52 CALM      30.44R
MONTROSE, CO   CLOUDY    39  17  41 S6        30.44S WCI  35
CORTEZ, CO     CLOUDY    42  14  32 E5        30.41R
COLORADO CITY    N/A     48  10  21 SE5       30.33R
PAGE, AZ       PTSUNNY   51  12  21 VRB3      30.33R
GRAND CANYON   MOSUNNY   41  19  41 CALM      30.40R
KINGMAN, AZ    SUNNY     60  27  28 SE6       30.19R
FLAGSTAFF, AZ  SUNNY     45  24  43 CALM      30.42R

$$

REGIONAL REPORTS    NEVADA/IDAHO/WYOMING

CITY           SKY/WX    TMP DP  RH WIND       PRES   REMARKS
LAS VEGAS, NV  MOSUNNY   60  13  15 SW6       30.15R
ELY, NY        PTSUNNY   34   1  24 S12       30.34R WCI  25
ELKO, NV       CLOUDY    31  17  56 E3        30.30R
POCATELLO, ID  CLOUDY    32  28  85 NE3       30.27F
BURLEY, ID     MOSUNNY   33  27  78 N3        30.22S
FORT BRIDGER,    N/A     51   5  15 SW8       30.39S
EVANSTON, WY   CLOUDY    42   8  24 S8        30.38S
ROCK SPRINGS,  CLOUDY    45   4  18 W6        30.37S
KEMMERER, WY   CLOUDY    37  14  38 NW8       30.38S WCI  31

$$



USA.gov is the U.S. government's official web portal to all federal, state and local government web resources and services.